Time,TemperatureF,DewpointF,PressureIn,WindDirection,WindDirectionDegrees,WindSpeedMPH,WindSpeedGustMPH,Humidity,HourlyPrecipIn,Conditions,Clouds,dailyrainin,SoftwareType,DateUTC
2013-09-15 00:01:00,56.8,37.4,29.96,SW,227,0.0,0.0,48,0.00,,---,0.00,VWS V13.01,2013-09-15 04:01:00,
2013-09-15 00:06:00,56.7,37.2,29.96,SW,227,0.0,0.0,48,0.00,,---,0.00,VWS V13.01,2013-09-15 04:06:00,
2013-09-15 00:11:00,56.3,36.9,29.96,SW,227,0.0,0.0,48,0.00,,---,0.00,VWS V13.01,2013-09-15 04:11:00,
2013-09-15 00:16:00,56.1,37.2,29.96,SW,227,0.0,0.0,49,0.00,,---,0.00,VWS V13.01,2013-09-15 04:16:00,
2013-09-15 00:21:00,56.1,37.2,29.96,SW,227,0.0,0.0,49,0.00,,---,0.00,VWS V13.01,2013-09-15 04:21:00,
2013-09-15 00:26:00,55.9,37.1,29.96,SW,227,0.0,0.0,49,0.00,,---,0.00,VWS V13.01,2013-09-15 04:26:00,
2013-09-15 00:31:00,55.9,37.1,29.96,SW,227,0.0,0.0,49,0.00,,---,0.00,VWS V13.01,2013-09-15 04:31:00,
2013-09-15 00:36:00,55.9,37.6,29.96,SW,227,0.0,0.0,50,0.00,,---,0.00,VWS V13.01,2013-09-15 04:36:00,
2013-09-15 00:41:00,55.9,37.6,29.96,SW,227,0.0,0.0,50,0.00,,---,0.00,VWS V13.01,2013-09-15 04:41:00,
2013-09-15 00:46:00,55.9,37.6,29.96,SW,227,0.0,0.0,50,0.00,,---,0.00,VWS V13.01,2013-09-15 04:46:00,
2013-09-15 00:51:00,55.9,37.6,29.96,SW,227,0.0,0.0,50,0.00,,---,0.00,VWS V13.01,2013-09-15 04:51:00,
2013-09-15 00:56:00,55.8,37.4,29.96,SW,227,0.0,0.0,50,0.00,,---,0.00,VWS V13.01,2013-09-15 04:56:00,
2013-09-15 01:01:00,55.6,37.2,29.96,SW,227,0.0,0.0,50,0.00,,---,0.00,VWS V13.01,2013-09-15 05:01:00,
2013-09-15 01:06:00,55.6,37.2,29.96,SW,227,0.0,0.0,50,0.00,,---,0.00,VWS V13.01,2013-09-15 05:06:00,
2013-09-15 01:11:00,55.4,37.6,29.96,SW,227,0.0,0.0,51,0.00,,---,0.00,VWS V13.01,2013-09-15 05:11:00,
2013-09-15 01:16:00,55.4,37.6,29.96,SW,227,0.0,0.0,51,0.00,,---,0.00,VWS V13.01,2013-09-15 05:16:00,
2013-09-15 01:21:00,55.2,37.9,29.96,SW,227,0.0,0.0,52,0.00,,---,0.00,VWS V13.01,2013-09-15 05:21:00,
2013-09-15 01:26:00,55.0,37.8,29.96,SW,227,0.0,0.0,52,0.00,,---,0.00,VWS V13.01,2013-09-15 05:26:00,
2013-09-15 01:31:00,55.0,38.2,29.96,SW,227,0.0,0.0,53,0.00,,---,0.00,VWS V13.01,2013-09-15 05:31:00,
2013-09-15 01:36:00,55.0,38.2,29.96,SW,227,0.0,0.0,53,0.00,,---,0.00,VWS V13.01,2013-09-15 05:36:00,
2013-09-15 01:41:00,55.2,38.4,29.96,SW,227,0.0,0.0,53,0.00,,---,0.00,VWS V13.01,2013-09-15 05:41:00,
2013-09-15 01:46:00,55.2,38.4,29.96,SW,227,0.0,0.0,53,0.00,,---,0.00,VWS V13.01,2013-09-15 05:46:00,
2013-09-15 01:51:00,55.0,38.2,29.96,SW,227,0.0,0.0,53,0.00,,---,0.00,VWS V13.01,2013-09-15 05:51:00,
2013-09-15 01:56:00,55.0,38.2,29.96,SW,227,0.0,0.0,53,0.00,,---,0.00,VWS V13.01,2013-09-15 05:56:00,
2013-09-15 02:01:00,55.0,38.2,29.96,SW,227,0.0,0.0,53,0.00,,---,0.00,VWS V13.01,2013-09-15 06:01:00,
2013-09-15 02:06:00,55.0,38.2,29.96,SW,227,0.0,0.0,53,0.00,,---,0.00,VWS V13.01,2013-09-15 06:06:00,
2013-09-15 02:11:00,55.0,38.2,29.96,SW,227,0.0,0.0,53,0.00,,---,0.00,VWS V13.01,2013-09-15 06:11:00,
2013-09-15 02:16:00,54.9,38.1,29.96,SW,227,0.0,0.0,53,0.00,,---,0.00,VWS V13.01,2013-09-15 06:16:00,
2013-09-15 02:21:00,54.9,38.1,29.96,SW,227,0.0,0.0,53,0.00,,---,0.00,VWS V13.01,2013-09-15 06:21:00,
2013-09-15 02:26:00,54.5,37.7,29.96,SW,227,0.0,0.0,53,0.00,,---,0.00,VWS V13.01,2013-09-15 06:26:00,
2013-09-15 02:31:00,54.5,37.7,29.96,SW,227,0.0,0.0,53,0.00,,---,0.00,VWS V13.01,2013-09-15 06:31:00,
2013-09-15 02:36:00,54.5,37.7,29.96,SW,227,0.0,0.0,53,0.00,,---,0.00,VWS V13.01,2013-09-15 06:36:00,
2013-09-15 02:41:00,54.3,38.0,29.96,SW,227,0.0,0.0,54,0.00,,---,0.00,VWS V13.01,2013-09-15 06:41:00,
2013-09-15 02:46:00,54.3,38.0,29.96,SW,227,0.0,0.0,54,0.00,,---,0.00,VWS V13.01,2013-09-15 06:46:00,
2013-09-15 02:51:00,54.1,37.9,29.96,SW,227,0.0,0.0,54,0.00,,---,0.00,VWS V13.01,2013-09-15 06:51:00,
2013-09-15 02:56:00,54.1,37.9,29.96,SW,227,0.0,0.0,54,0.00,,---,0.00,VWS V13.01,2013-09-15 06:56:00,
2013-09-15 03:01:00,54.0,37.7,29.96,SW,227,0.0,0.0,54,0.00,,---,0.00,VWS V13.01,2013-09-15 07:01:00,
2013-09-15 03:06:00,54.0,37.7,29.96,SW,227,0.0,0.0,54,0.00,,---,0.00,VWS V13.01,2013-09-15 07:06:00,
2013-09-15 03:11:00,53.8,37.5,29.96,SW,227,0.0,0.0,54,0.00,,---,0.00,VWS V13.01,2013-09-15 07:11:00,
2013-09-15 03:16:00,53.6,37.8,29.96,SW,227,0.0,0.0,55,0.00,,---,0.00,VWS V13.01,2013-09-15 07:16:00,
2013-09-15 03:21:00,53.6,37.8,29.96,SW,227,0.0,0.0,55,0.00,,---,0.00,VWS V13.01,2013-09-15 07:21:00,
2013-09-15 03:26:00,53.6,37.8,29.96,SW,227,0.0,0.0,55,0.00,,---,0.00,VWS V13.01,2013-09-15 07:26:00,
2013-09-15 03:31:00,53.6,37.8,29.96,SW,227,0.0,0.0,55,0.00,,---,0.00,VWS V13.01,2013-09-15 07:31:00,
2013-09-15 03:36:00,53.6,37.8,29.96,SW,227,0.0,0.0,55,0.00,,---,0.00,VWS V13.01,2013-09-15 07:36:00,
2013-09-15 03:41:00,53.4,37.7,29.96,SW,227,0.0,0.0,55,0.00,,---,0.00,VWS V13.01,2013-09-15 07:41:00,
2013-09-15 03:46:00,53.4,37.7,29.96,SW,227,0.0,0.0,55,0.00,,---,0.00,VWS V13.01,2013-09-15 07:46:00,
2013-09-15 03:51:00,53.6,37.8,29.96,SW,227,0.0,0.0,55,0.00,,---,0.00,VWS V13.01,2013-09-15 07:51:00,
2013-09-15 03:56:00,53.6,37.8,29.96,SW,227,0.0,0.0,55,0.00,,---,0.00,VWS V13.01,2013-09-15 07:56:00,
2013-09-15 04:01:00,53.2,37.5,29.96,SW,227,0.0,0.0,55,0.00,,---,0.00,VWS V13.01,2013-09-15 08:01:00,
2013-09-15 04:06:00,53.1,37.3,29.96,SW,227,0.0,0.0,55,0.00,,---,0.00,VWS V13.01,2013-09-15 08:06:00,
2013-09-15 04:11:00,53.1,37.3,29.96,SW,227,0.0,0.0,55,0.00,,---,0.00,VWS V13.01,2013-09-15 08:11:00,
2013-09-15 04:16:00,52.9,37.2,29.96,SW,227,0.0,0.0,55,0.00,,---,0.00,VWS V13.01,2013-09-15 08:16:00,
2013-09-15 04:21:00,52.7,37.5,29.96,SW,227,0.0,0.0,56,0.00,,---,0.00,VWS V13.01,2013-09-15 08:21:00,
2013-09-15 04:26:00,52.7,37.5,29.96,SW,227,0.0,0.0,56,0.00,,---,0.00,VWS V13.01,2013-09-15 08:26:00,
2013-09-15 04:31:00,52.5,37.3,29.96,SW,227,0.0,0.0,56,0.00,,---,0.00,VWS V13.01,2013-09-15 08:31:00,
2013-09-15 04:36:00,52.5,37.3,29.96,SW,227,0.0,0.0,56,0.00,,---,0.00,VWS V13.01,2013-09-15 08:36:00,
2013-09-15 04:42:00,52.5,37.3,29.96,SW,227,0.0,0.0,56,0.00,,---,0.00,VWS V13.01,2013-09-15 08:42:00,
2013-09-15 04:46:00,52.3,37.1,29.96,SW,227,0.0,0.0,56,0.00,,---,0.00,VWS V13.01,2013-09-15 08:46:00,
2013-09-15 04:51:00,52.2,37.4,29.96,SW,227,0.0,0.0,57,0.00,,---,0.00,VWS V13.01,2013-09-15 08:51:00,
2013-09-15 04:56:00,52.0,37.2,29.96,SW,227,0.0,0.0,57,0.00,,---,0.00,VWS V13.01,2013-09-15 08:56:00,
2013-09-15 05:02:00,52.0,37.2,29.96,SW,227,0.0,0.0,57,0.00,,---,0.00,VWS V13.01,2013-09-15 09:02:00,
2013-09-15 05:07:00,51.8,37.1,29.96,SW,227,0.0,0.0,57,0.00,,---,0.00,VWS V13.01,2013-09-15 09:07:00,
2013-09-15 05:12:00,51.8,37.1,29.96,SW,227,0.0,0.0,57,0.00,,---,0.00,VWS V13.01,2013-09-15 09:12:00,
2013-09-15 05:17:00,51.8,37.5,29.96,SW,227,0.0,0.0,58,0.00,,---,0.00,VWS V13.01,2013-09-15 09:17:00,
2013-09-15 05:22:00,51.8,37.5,29.96,SW,227,0.0,0.0,58,0.00,,---,0.00,VWS V13.01,2013-09-15 09:22:00,
2013-09-15 05:27:00,51.6,37.3,29.96,SW,227,0.0,0.0,58,0.00,,---,0.00,VWS V13.01,2013-09-15 09:27:00,
2013-09-15 05:32:00,51.6,37.8,29.96,SW,227,0.0,0.0,59,0.00,,---,0.00,VWS V13.01,2013-09-15 09:32:00,
2013-09-15 05:37:00,51.6,37.8,29.96,SW,227,0.0,0.0,59,0.00,,---,0.00,VWS V13.01,2013-09-15 09:37:00,
2013-09-15 05:42:00,51.8,37.9,29.96,SW,227,0.0,0.0,59,0.00,,---,0.00,VWS V13.01,2013-09-15 09:42:00,
2013-09-15 05:47:00,51.8,37.9,29.96,SW,227,0.0,0.0,59,0.00,,---,0.00,VWS V13.01,2013-09-15 09:47:00,
2013-09-15 05:52:00,51.8,37.9,29.96,SW,227,0.0,0.0,59,0.00,,---,0.00,VWS V13.01,2013-09-15 09:52:00,
2013-09-15 05:57:00,51.6,37.8,29.96,SW,227,0.0,0.0,59,0.00,,---,0.00,VWS V13.01,2013-09-15 09:57:00,
2013-09-15 06:02:00,51.6,37.8,29.96,SW,227,0.0,0.0,59,0.00,,---,0.00,VWS V13.01,2013-09-15 10:02:00,
2013-09-15 06:07:00,51.6,38.2,29.96,SW,227,0.0,0.0,60,0.00,,---,0.00,VWS V13.01,2013-09-15 10:07:00,
2013-09-15 06:12:00,51.6,38.2,29.96,SW,227,0.0,0.0,60,0.00,,---,0.00,VWS V13.01,2013-09-15 10:12:00,
2013-09-15 06:17:00,51.6,38.2,29.96,SW,227,0.0,0.0,60,0.00,,---,0.00,VWS V13.01,2013-09-15 10:17:00,
2013-09-15 06:22:00,51.6,38.2,29.96,SW,227,0.0,0.0,60,0.00,,---,0.00,VWS V13.01,2013-09-15 10:22:00,
2013-09-15 06:27:00,51.4,38.0,29.96,SW,227,0.0,0.0,60,0.00,,---,0.00,VWS V13.01,2013-09-15 10:27:00,
2013-09-15 06:32:00,51.4,38.0,29.96,SW,227,0.0,0.0,60,0.00,,---,0.00,VWS V13.01,2013-09-15 10:32:00,
2013-09-15 06:37:00,51.4,38.0,29.96,SW,227,0.0,0.0,60,0.00,,---,0.00,VWS V13.01,2013-09-15 10:37:00,
2013-09-15 06:42:00,51.4,38.0,29.96,SW,227,0.0,0.0,60,0.00,,---,0.00,VWS V13.01,2013-09-15 10:42:00,
2013-09-15 06:47:00,51.4,38.0,29.96,SW,227,0.0,0.0,60,0.00,,---,0.00,VWS V13.01,2013-09-15 10:47:00,
2013-09-15 06:52:00,51.4,38.5,29.96,SW,227,0.0,0.0,61,0.00,,---,0.00,VWS V13.01,2013-09-15 10:52:00,
2013-09-15 06:57:00,51.4,38.5,29.96,SW,227,0.0,0.0,61,0.00,,---,0.00,VWS V13.01,2013-09-15 10:57:00,
2013-09-15 07:02:00,51.4,38.5,29.96,SW,227,0.0,0.0,61,0.00,,---,0.00,VWS V13.01,2013-09-15 11:02:00,
2013-09-15 07:07:00,51.4,38.5,29.96,SW,227,0.0,0.0,61,0.00,,---,0.00,VWS V13.01,2013-09-15 11:07:00,
2013-09-15 07:12:00,51.4,38.5,29.96,SW,227,0.0,0.0,61,0.00,,---,0.00,VWS V13.01,2013-09-15 11:12:00,
2013-09-15 07:17:00,51.4,38.5,29.96,SW,227,0.0,0.0,61,0.00,,---,0.00,VWS V13.01,2013-09-15 11:17:00,
2013-09-15 07:22:00,51.4,38.9,29.96,SW,227,0.0,0.0,62,0.00,,---,0.00,VWS V13.01,2013-09-15 11:22:00,
2013-09-15 07:27:00,51.6,39.0,29.96,SW,227,0.0,0.0,62,0.00,,---,0.00,VWS V13.01,2013-09-15 11:27:00,
2013-09-15 07:32:00,51.6,39.0,29.96,SW,227,0.0,0.0,62,0.00,,---,0.00,VWS V13.01,2013-09-15 11:32:00,
2013-09-15 07:37:00,52.0,39.4,29.96,SW,227,0.0,0.0,62,0.00,,---,0.00,VWS V13.01,2013-09-15 11:37:00,
2013-09-15 07:42:00,52.2,39.5,29.96,SW,227,0.0,0.0,62,0.00,,---,0.00,VWS V13.01,2013-09-15 11:42:00,
2013-09-15 07:47:00,52.2,39.5,29.96,SW,227,0.0,0.0,62,0.00,,---,0.00,VWS V13.01,2013-09-15 11:47:00,
2013-09-15 07:52:00,52.5,40.3,29.96,SW,227,0.0,0.0,63,0.00,,---,0.00,VWS V13.01,2013-09-15 11:52:00,
2013-09-15 07:57:00,52.7,40.5,29.96,SW,227,0.0,0.0,63,0.00,,---,0.00,VWS V13.01,2013-09-15 11:57:00,
2013-09-15 08:02:00,53.1,40.8,29.96,SW,227,0.0,0.0,63,0.00,,---,0.00,VWS V13.01,2013-09-15 12:02:00,
2013-09-15 08:07:00,53.2,41.0,29.96,SW,227,0.0,0.0,63,0.00,,---,0.00,VWS V13.01,2013-09-15 12:07:00,
2013-09-15 08:12:00,53.8,41.5,29.96,SW,227,0.0,0.0,63,0.00,,---,0.00,VWS V13.01,2013-09-15 12:12:00,
2013-09-15 08:17:00,54.1,41.4,29.96,SW,227,0.0,0.0,62,0.00,,---,0.00,VWS V13.01,2013-09-15 12:17:00,
2013-09-15 08:22:00,54.5,42.2,29.96,SW,227,0.0,0.0,63,0.00,,---,0.00,VWS V13.01,2013-09-15 12:22:00,
2013-09-15 08:27:00,55.0,42.3,29.96,SW,227,0.0,0.0,62,0.00,,---,0.00,VWS V13.01,2013-09-15 12:27:00,
2013-09-15 08:32:00,55.4,42.6,29.96,SW,227,0.0,0.0,62,0.00,,---,0.00,VWS V13.01,2013-09-15 12:32:00,
2013-09-15 08:37:00,55.6,42.4,29.96,SW,227,0.0,0.0,61,0.00,,---,0.00,VWS V13.01,2013-09-15 12:37:00,
2013-09-15 08:42:00,55.8,42.1,29.96,SW,227,0.0,0.0,60,0.00,,---,0.00,VWS V13.01,2013-09-15 12:42:00,
2013-09-15 08:47:00,55.9,42.3,29.96,SW,227,0.0,0.0,60,0.00,,---,0.00,VWS V13.01,2013-09-15 12:47:00,
2013-09-15 08:52:00,56.3,42.6,29.96,SW,227,0.0,0.0,60,0.00,,---,0.00,VWS V13.01,2013-09-15 12:52:00,
2013-09-15 08:57:00,56.5,42.3,29.96,SW,227,0.0,0.0,59,0.00,,---,0.00,VWS V13.01,2013-09-15 12:57:00,
2013-09-15 09:02:00,56.7,42.5,29.96,SW,227,0.0,0.0,59,0.00,,---,0.00,VWS V13.01,2013-09-15 13:02:00,
2013-09-15 09:07:00,57.0,42.4,29.96,SW,227,0.0,0.0,58,0.00,,---,0.00,VWS V13.01,2013-09-15 13:07:00,
2013-09-15 09:12:00,57.2,42.1,29.96,SW,227,0.0,0.0,57,0.00,,---,0.00,VWS V13.01,2013-09-15 13:12:00,
2013-09-15 09:17:00,57.6,42.0,29.96,SW,227,0.0,0.0,56,0.00,,---,0.00,VWS V13.01,2013-09-15 13:17:00,
2013-09-15 09:22:00,57.7,42.2,29.96,SW,227,0.0,0.0,56,0.00,,---,0.00,VWS V13.01,2013-09-15 13:22:00,
2013-09-15 09:27:00,58.3,42.7,29.96,SW,227,0.0,0.0,56,0.00,,---,0.00,VWS V13.01,2013-09-15 13:27:00,
2013-09-15 09:32:00,58.5,42.8,29.96,SW,227,0.0,0.0,56,0.00,,---,0.00,VWS V13.01,2013-09-15 13:32:00,
2013-09-15 09:37:00,58.8,43.2,29.96,SW,227,0.0,0.0,56,0.00,,---,0.00,VWS V13.01,2013-09-15 13:37:00,
2013-09-15 09:42:00,59.2,43.0,29.96,SW,227,0.0,0.0,55,0.00,,---,0.00,VWS V13.01,2013-09-15 13:42:00,
2013-09-15 09:47:00,59.4,43.2,29.96,SW,227,0.0,0.0,55,0.00,,---,0.00,VWS V13.01,2013-09-15 13:47:00,
2013-09-15 09:52:00,59.5,43.4,29.96,SW,227,0.0,0.0,55,0.00,,---,0.00,VWS V13.01,2013-09-15 13:52:00,
2013-09-15 09:57:00,59.5,43.4,29.96,SW,227,0.0,0.0,55,0.00,,---,0.00,VWS V13.01,2013-09-15 13:57:00,
2013-09-15 10:02:00,60.3,44.0,29.96,SW,227,0.0,0.0,55,0.00,,---,0.00,VWS V13.01,2013-09-15 14:02:00,
2013-09-15 10:07:00,60.4,44.2,29.96,SW,227,0.0,0.0,55,0.00,,---,0.00,VWS V13.01,2013-09-15 14:07:00,
2013-09-15 10:12:00,60.8,44.1,29.96,SW,227,0.0,0.0,54,0.00,,---,0.00,VWS V13.01,2013-09-15 14:12:00,
2013-09-15 10:17:00,61.5,44.2,29.96,SW,227,0.0,0.0,53,0.00,,---,0.00,VWS V13.01,2013-09-15 14:17:00,
2013-09-15 10:22:00,62.1,44.8,29.96,SW,227,0.0,0.0,53,0.00,,---,0.00,VWS V13.01,2013-09-15 14:22:00,
2013-09-15 10:27:00,62.4,44.1,29.96,SE,131,0.0,0.0,51,0.00,,---,0.00,VWS V13.01,2013-09-15 14:27:00,
2013-09-15 10:32:00,62.8,43.4,29.96,East,80,0.0,0.0,49,0.00,,---,0.00,VWS V13.01,2013-09-15 14:32:00,
2013-09-15 10:37:00,63.5,43.5,29.96,ESE,117,0.0,0.0,48,0.00,,---,0.00,VWS V13.01,2013-09-15 14:37:00,
2013-09-15 10:42:00,63.5,43.5,29.96,North,0,0.0,0.0,48,0.00,,---,0.00,VWS V13.01,2013-09-15 14:42:00,
2013-09-15 10:47:00,63.7,43.1,29.96,WNW,289,0.0,0.0,47,0.00,,---,0.00,VWS V13.01,2013-09-15 14:47:00,
2013-09-15 10:52:00,63.9,43.8,29.96,ESE,107,0.0,0.0,48,0.00,,---,0.00,VWS V13.01,2013-09-15 14:52:00,
2013-09-15 10:57:00,64.2,44.1,29.96,NNE,16,0.0,0.0,48,0.00,,---,0.00,VWS V13.01,2013-09-15 14:57:00,
2013-09-15 11:02:00,64.6,44.5,29.96,North,357,0.0,0.0,48,0.00,,---,0.00,VWS V13.01,2013-09-15 15:02:00,
2013-09-15 11:07:00,64.8,44.6,29.96,SE,144,0.0,0.0,48,0.00,,---,0.00,VWS V13.01,2013-09-15 15:07:00,
2013-09-15 11:13:00,65.7,44.9,29.96,North,353,0.0,0.0,47,0.00,,---,0.00,VWS V13.01,2013-09-15 15:13:00,
2013-09-15 11:17:00,65.8,43.9,29.96,SSW,210,0.0,0.0,45,0.00,,---,0.00,VWS V13.01,2013-09-15 15:17:00,
2013-09-15 11:22:00,66.0,44.1,29.96,ESE,112,0.0,0.0,45,0.00,,---,0.00,VWS V13.01,2013-09-15 15:22:00,
2013-09-15 11:27:00,66.0,44.1,29.96,ESE,115,0.0,0.0,45,0.00,,---,0.00,VWS V13.01,2013-09-15 15:27:00,
2013-09-15 11:32:00,66.9,44.9,29.96,SSE,148,0.0,0.0,45,0.00,,---,0.00,VWS V13.01,2013-09-15 15:32:00,
2013-09-15 11:38:00,67.6,45.0,29.96,North,349,0.0,0.0,44,0.00,,---,0.00,VWS V13.01,2013-09-15 15:38:00,
2013-09-15 11:42:00,68.0,44.7,29.96,NNW,341,0.0,0.0,43,0.00,,---,0.00,VWS V13.01,2013-09-15 15:42:00,
2013-09-15 11:47:00,68.4,45.0,29.96,NE,49,0.0,0.0,43,0.00,,---,0.00,VWS V13.01,2013-09-15 15:47:00,
2013-09-15 11:52:00,68.9,42.3,29.96,NE,45,0.0,0.0,38,0.00,,---,0.00,VWS V13.01,2013-09-15 15:52:00,
2013-09-15 11:57:00,69.1,42.4,29.96,ENE,77,0.0,0.0,38,0.00,,---,0.00,VWS V13.01,2013-09-15 15:57:00,
2013-09-15 12:03:00,69.6,42.9,29.96,North,0,0.0,0.0,38,0.00,,---,0.00,VWS V13.01,2013-09-15 16:03:00,
2013-09-15 12:07:00,69.6,42.9,29.96,NNE,33,0.0,0.0,38,0.00,,---,0.00,VWS V13.01,2013-09-15 16:07:00,
2013-09-15 12:12:00,70.7,41.7,29.96,NW,318,0.0,0.0,35,0.00,,---,0.00,VWS V13.01,2013-09-15 16:12:00,
2013-09-15 12:17:00,70.9,42.6,29.96,North,0,0.0,0.0,36,0.00,,---,0.00,VWS V13.01,2013-09-15 16:17:00,
2013-09-15 12:23:00,71.2,41.5,29.96,North,0,0.0,0.0,34,0.00,,---,0.00,VWS V13.01,2013-09-15 16:23:00,
2013-09-15 12:28:00,72.1,40.7,29.96,NNE,31,0.0,0.0,32,0.00,,---,0.00,VWS V13.01,2013-09-15 16:28:00,
2013-09-15 12:33:00,72.1,40.7,29.96,North,0,0.0,0.0,32,0.00,,---,0.00,VWS V13.01,2013-09-15 16:33:00,
2013-09-15 12:37:00,73.0,41.5,29.96,North,3,0.0,0.0,32,0.00,,---,0.00,VWS V13.01,2013-09-15 16:37:00,
2013-09-15 12:42:00,73.4,39.2,29.96,North,0,0.0,0.0,29,0.00,,---,0.00,VWS V13.01,2013-09-15 16:42:00,
2013-09-15 12:47:00,73.6,41.1,29.96,NNW,332,0.0,0.0,31,0.00,,---,0.00,VWS V13.01,2013-09-15 16:47:00,
2013-09-15 12:52:00,73.8,41.3,29.96,NE,34,0.0,0.0,31,0.00,,---,0.00,VWS V13.01,2013-09-15 16:52:00,
2013-09-15 12:53:00,73.8,41.3,29.96,NE,34,0.0,0.0,31,0.00,,---,0.00,VWS V13.01,2013-09-15 16:53:00,
2013-09-15 12:58:00,73.8,41.3,29.96,NNW,327,0.0,0.0,31,0.00,,---,0.00,VWS V13.01,2013-09-15 16:58:00,
2013-09-15 13:03:00,73.9,39.7,29.96,North,4,0.0,0.0,29,0.00,,---,0.00,VWS V13.01,2013-09-15 17:03:00,
2013-09-15 13:08:00,74.3,41.7,29.96,ENE,65,0.0,0.0,31,0.00,,---,0.00,VWS V13.01,2013-09-15 17:08:00,
2013-09-15 13:13:00,74.5,40.2,29.96,SE,127,0.0,0.0,29,0.00,,---,0.00,VWS V13.01,2013-09-15 17:13:00,
2013-09-15 13:18:00,74.8,39.6,29.96,ESE,105,0.0,0.0,28,0.00,,---,0.00,VWS V13.01,2013-09-15 17:18:00,
2013-09-15 13:23:00,75.4,40.0,29.96,North,9,0.0,0.0,28,0.00,,---,0.00,VWS V13.01,2013-09-15 17:23:00,
2013-09-15 13:28:00,75.6,40.2,29.96,North,0,0.0,0.0,28,0.00,,---,0.00,VWS V13.01,2013-09-15 17:28:00,
2013-09-15 13:33:00,75.7,39.4,29.96,North,0,0.0,0.0,27,0.00,,---,0.00,VWS V13.01,2013-09-15 17:33:00,
2013-09-15 13:38:00,75.9,37.6,29.96,SSE,154,0.0,0.0,25,0.00,,---,0.00,VWS V13.01,2013-09-15 17:38:00,
2013-09-15 13:43:00,76.1,38.8,29.96,NNE,20,0.0,0.0,26,0.00,,---,0.00,VWS V13.01,2013-09-15 17:43:00,
2013-09-15 13:48:00,76.8,39.4,29.96,SSE,158,2.7,2.7,26,0.00,,---,0.00,VWS V13.01,2013-09-15 17:48:00,
2013-09-15 13:53:00,76.8,37.3,29.96,East,79,0.0,0.0,24,0.00,,---,0.00,VWS V13.01,2013-09-15 17:53:00,
2013-09-15 13:58:00,77.0,37.5,29.96,SSW,210,3.6,3.6,24,0.00,,---,0.00,VWS V13.01,2013-09-15 17:58:00,
2013-09-15 14:03:00,77.0,37.5,29.96,SE,125,2.7,2.7,24,0.00,,---,0.00,VWS V13.01,2013-09-15 18:03:00,
2013-09-15 14:08:00,77.4,37.8,29.96,North,353,0.0,0.0,24,0.00,,---,0.00,VWS V13.01,2013-09-15 18:08:00,
2013-09-15 14:13:00,77.7,38.1,29.96,North,0,0.0,0.0,24,0.00,,---,0.00,VWS V13.01,2013-09-15 18:13:00,
2013-09-15 14:18:00,77.9,37.2,29.96,SSW,197,0.0,0.0,23,0.00,,---,0.00,VWS V13.01,2013-09-15 18:18:00,
2013-09-15 14:23:00,78.1,37.3,29.96,NE,34,0.0,0.0,23,0.00,,---,0.00,VWS V13.01,2013-09-15 18:23:00,
2013-09-15 14:28:00,78.1,37.3,29.96,NNE,12,0.0,0.0,23,0.00,,---,0.00,VWS V13.01,2013-09-15 18:28:00,
2013-09-15 14:33:00,78.1,37.3,29.96,SE,142,0.0,0.0,23,0.00,,---,0.00,VWS V13.01,2013-09-15 18:33:00,
2013-09-15 14:38:00,78.3,37.5,29.96,ESE,112,0.0,0.0,23,0.00,,---,0.00,VWS V13.01,2013-09-15 18:38:00,
2013-09-15 14:43:00,78.3,37.5,29.96,North,2,0.0,4.9,23,0.00,,---,0.00,VWS V13.01,2013-09-15 18:43:00,
2013-09-15 14:48:00,78.4,37.6,29.96,ESE,121,0.0,0.0,23,0.00,,---,0.00,VWS V13.01,2013-09-15 18:48:00,
2013-09-15 14:53:00,78.4,37.6,29.96,ENE,66,0.0,0.0,23,0.00,,---,0.00,VWS V13.01,2013-09-15 18:53:00,
2013-09-15 14:58:00,78.8,36.8,29.96,South,180,0.0,0.0,22,0.00,,---,0.00,VWS V13.01,2013-09-15 18:58:00,
2013-09-15 15:03:00,78.8,36.8,29.96,North,9,0.0,0.0,22,0.00,,---,0.00,VWS V13.01,2013-09-15 19:03:00,
2013-09-15 15:08:00,78.4,37.6,29.96,SSE,163,0.0,0.0,23,0.00,,---,0.00,VWS V13.01,2013-09-15 19:08:00,
2013-09-15 15:13:00,78.6,37.8,29.96,WSW,247,0.0,0.0,23,0.00,,---,0.00,VWS V13.01,2013-09-15 19:13:00,
2013-09-15 15:18:00,78.8,37.9,29.96,NNE,29,0.0,0.0,23,0.00,,---,0.00,VWS V13.01,2013-09-15 19:18:00,
2013-09-15 15:23:00,78.6,36.6,29.96,SE,137,0.0,0.0,22,0.00,,---,0.00,VWS V13.01,2013-09-15 19:23:00,
2013-09-15 15:28:00,78.3,37.5,29.96,North,7,0.0,0.0,23,0.00,,---,0.00,VWS V13.01,2013-09-15 19:28:00,
2013-09-15 15:33:00,78.3,37.5,29.96,North,1,0.0,0.0,23,0.00,,---,0.00,VWS V13.01,2013-09-15 19:33:00,
2013-09-15 15:38:00,78.4,37.6,29.96,NNE,19,0.0,0.0,23,0.00,,---,0.00,VWS V13.01,2013-09-15 19:38:00,
2013-09-15 15:43:00,78.6,36.6,29.96,SSW,192,0.0,0.0,22,0.00,,---,0.00,VWS V13.01,2013-09-15 19:43:00,
2013-09-15 15:48:00,78.8,36.8,29.96,NNE,15,0.0,0.0,22,0.00,,---,0.00,VWS V13.01,2013-09-15 19:48:00,
2013-09-15 15:53:00,79.0,36.9,29.96,NNE,33,0.0,2.7,22,0.00,,---,0.00,VWS V13.01,2013-09-15 19:53:00,
2013-09-15 15:58:00,79.3,37.2,29.96,North,357,0.0,0.0,22,0.00,,---,0.00,VWS V13.01,2013-09-15 19:58:00,
2013-09-15 16:03:00,79.5,37.4,29.96,North,4,0.0,0.0,22,0.00,,---,0.00,VWS V13.01,2013-09-15 20:03:00,
2013-09-15 16:08:00,79.3,37.2,29.96,North,4,0.0,0.0,22,0.00,,---,0.00,VWS V13.01,2013-09-15 20:08:00,
2013-09-15 16:13:00,79.0,36.9,29.96,NE,34,0.0,0.0,22,0.00,,---,0.00,VWS V13.01,2013-09-15 20:13:00,
2013-09-15 16:18:00,79.3,37.2,29.96,NNE,19,0.0,0.0,22,0.00,,---,0.00,VWS V13.01,2013-09-15 20:18:00,
2013-09-15 16:23:00,79.3,37.2,29.96,SSE,167,0.0,0.0,22,0.00,,---,0.00,VWS V13.01,2013-09-15 20:23:00,
2013-09-15 16:28:00,79.3,37.2,29.96,NW,320,0.0,0.0,22,0.00,,---,0.00,VWS V13.01,2013-09-15 20:28:00,
2013-09-15 16:33:00,78.6,36.6,29.96,North,7,0.0,0.0,22,0.00,,---,0.00,VWS V13.01,2013-09-15 20:33:00,
2013-09-15 16:38:00,78.4,37.6,29.96,NW,318,2.2,2.2,23,0.00,,---,0.00,VWS V13.01,2013-09-15 20:38:00,
2013-09-15 16:43:00,78.1,37.3,29.96,SSE,159,0.0,0.0,23,0.00,,---,0.00,VWS V13.01,2013-09-15 20:43:00,
2013-09-15 16:48:00,77.9,37.2,29.96,North,357,0.0,0.0,23,0.00,,---,0.00,VWS V13.01,2013-09-15 20:48:00,
2013-09-15 16:53:00,77.9,37.2,29.96,NNW,344,0.0,0.0,23,0.00,,---,0.00,VWS V13.01,2013-09-15 20:53:00,
2013-09-15 16:58:00,78.1,38.4,29.96,NE,37,0.0,0.0,24,0.00,,---,0.00,VWS V13.01,2013-09-15 20:58:00,
2013-09-15 17:03:00,77.9,38.2,29.96,NNW,338,0.0,0.0,24,0.00,,---,0.00,VWS V13.01,2013-09-15 21:03:00,
2013-09-15 17:08:00,77.7,37.0,29.96,North,1,0.0,0.0,23,0.00,,---,0.00,VWS V13.01,2013-09-15 21:08:00,
2013-09-15 17:13:00,77.7,37.0,29.96,NE,51,0.0,0.0,23,0.00,,---,0.00,VWS V13.01,2013-09-15 21:13:00,
2013-09-15 17:18:00,77.2,36.5,29.96,NNW,348,0.0,2.2,23,0.00,,---,0.00,VWS V13.01,2013-09-15 21:18:00,
2013-09-15 17:23:00,76.8,37.3,29.96,NNE,29,0.0,0.0,24,0.00,,---,0.00,VWS V13.01,2013-09-15 21:23:00,
2013-09-15 17:28:00,76.6,38.2,29.96,NNE,29,0.0,0.0,25,0.00,,---,0.00,VWS V13.01,2013-09-15 21:28:00,
2013-09-15 17:33:00,76.6,38.2,29.96,North,8,0.0,0.0,25,0.00,,---,0.00,VWS V13.01,2013-09-15 21:33:00,
2013-09-15 17:38:00,76.5,39.1,29.96,NNE,25,0.0,0.0,26,0.00,,---,0.00,VWS V13.01,2013-09-15 21:38:00,
2013-09-15 17:43:00,76.3,38.9,29.96,South,175,0.0,0.0,26,0.00,,---,0.00,VWS V13.01,2013-09-15 21:43:00,
2013-09-15 17:48:00,76.3,39.9,29.96,NNE,13,0.0,0.0,27,0.00,,---,0.00,VWS V13.01,2013-09-15 21:48:00,
2013-09-15 17:53:00,76.3,39.9,29.96,North,6,0.0,0.0,27,0.00,,---,0.00,VWS V13.01,2013-09-15 21:53:00,
2013-09-15 17:58:00,75.9,39.6,29.96,North,6,0.0,0.0,27,0.00,,---,0.00,VWS V13.01,2013-09-15 21:58:00,
2013-09-15 18:03:00,75.6,40.2,29.96,ENE,63,0.0,0.0,28,0.00,,---,0.00,VWS V13.01,2013-09-15 22:03:00,
2013-09-15 18:08:00,75.4,41.0,29.96,ENE,63,0.0,0.0,29,0.00,,---,0.00,VWS V13.01,2013-09-15 22:08:00,
2013-09-15 18:13:00,75.2,40.8,29.96,ENE,58,0.0,0.0,29,0.00,,---,0.00,VWS V13.01,2013-09-15 22:13:00,
2013-09-15 18:18:00,74.8,41.4,29.96,NW,316,0.0,0.0,30,0.00,,---,0.00,VWS V13.01,2013-09-15 22:18:00,
2013-09-15 18:23:00,74.7,42.0,29.96,NW,316,0.0,0.0,31,0.00,,---,0.00,VWS V13.01,2013-09-15 22:23:00,
2013-09-15 18:28:00,74.5,41.9,29.96,NW,320,0.0,0.0,31,0.00,,---,0.00,VWS V13.01,2013-09-15 22:28:00,
2013-09-15 18:33:00,73.9,41.4,29.96,NW,320,0.0,0.0,31,0.00,,---,0.00,VWS V13.01,2013-09-15 22:33:00,
2013-09-15 18:38:00,73.4,41.8,29.96,NW,320,0.0,0.0,32,0.00,,---,0.00,VWS V13.01,2013-09-15 22:38:00,
2013-09-15 18:43:00,73.2,41.6,29.96,NW,320,0.0,0.0,32,0.00,,---,0.00,VWS V13.01,2013-09-15 22:43:00,
2013-09-15 18:48:00,73.0,42.3,29.96,NW,320,0.0,0.0,33,0.00,,---,0.00,VWS V13.01,2013-09-15 22:48:00,
2013-09-15 18:53:00,72.7,42.0,29.96,NW,320,0.0,0.0,33,0.00,,---,0.00,VWS V13.01,2013-09-15 22:53:00,
2013-09-15 18:58:00,72.5,41.8,29.96,NW,320,0.0,0.0,33,0.00,,---,0.00,VWS V13.01,2013-09-15 22:58:00,
2013-09-15 19:03:00,72.1,42.2,29.96,NW,320,0.0,0.0,34,0.00,,---,0.00,VWS V13.01,2013-09-15 23:03:00,
2013-09-15 19:08:00,72.0,42.1,29.96,NW,320,0.0,0.0,34,0.00,,---,0.00,VWS V13.01,2013-09-15 23:08:00,
2013-09-15 19:13:00,71.8,41.9,29.96,NW,320,0.0,0.0,34,0.00,,---,0.00,VWS V13.01,2013-09-15 23:13:00,
2013-09-15 19:18:00,71.4,42.4,29.96,NW,320,0.0,0.0,35,0.00,,---,0.00,VWS V13.01,2013-09-15 23:18:00,
2013-09-15 19:23:00,71.2,42.9,29.96,NW,320,0.0,0.0,36,0.00,,---,0.00,VWS V13.01,2013-09-15 23:23:00,
2013-09-15 19:28:00,71.1,42.8,29.96,NW,320,0.0,0.0,36,0.00,,---,0.00,VWS V13.01,2013-09-15 23:28:00,
2013-09-15 19:33:00,70.5,43.0,29.96,NW,320,0.0,0.0,37,0.00,,---,0.00,VWS V13.01,2013-09-15 23:33:00,
2013-09-15 19:38:00,70.2,43.4,29.96,NW,320,0.0,0.0,38,0.00,,---,0.00,VWS V13.01,2013-09-15 23:38:00,
2013-09-15 19:43:00,70.0,43.2,29.96,NW,320,0.0,0.0,38,0.00,,---,0.00,VWS V13.01,2013-09-15 23:43:00,
2013-09-15 19:48:00,69.6,44.9,29.96,NW,320,0.0,0.0,41,0.00,,---,0.00,VWS V13.01,2013-09-15 23:48:00,
2013-09-15 19:53:00,69.4,44.7,29.96,NW,320,0.0,0.0,41,0.00,,---,0.00,VWS V13.01,2013-09-15 23:53:00,
2013-09-15 19:59:00,69.3,44.6,29.96,NW,320,0.0,0.0,41,0.00,,---,0.00,VWS V13.01,2013-09-15 23:59:00,
2013-09-15 20:04:00,69.1,45.0,29.96,NW,320,0.0,0.0,42,0.00,,---,0.00,VWS V13.01,2013-09-16 00:04:00,
2013-09-15 20:09:00,68.9,44.9,29.96,NW,320,0.0,0.0,42,0.00,,---,0.00,VWS V13.01,2013-09-16 00:09:00,
2013-09-15 20:14:00,68.7,45.3,29.96,NW,320,0.0,0.0,43,0.00,,---,0.00,VWS V13.01,2013-09-16 00:14:00,
2013-09-15 20:19:00,68.5,45.2,29.96,NW,320,0.0,0.0,43,0.00,,---,0.00,VWS V13.01,2013-09-16 00:19:00,
2013-09-15 20:24:00,68.4,45.0,29.96,NW,320,0.0,0.0,43,0.00,,---,0.00,VWS V13.01,2013-09-16 00:24:00,
2013-09-15 20:29:00,68.4,45.0,29.96,NW,320,0.0,0.0,43,0.00,,---,0.00,VWS V13.01,2013-09-16 00:29:00,
2013-09-15 20:33:00,68.2,44.9,29.96,NW,320,0.0,0.0,43,0.00,,---,0.00,VWS V13.01,2013-09-16 00:33:00,
2013-09-15 20:38:00,68.0,45.3,29.96,NW,320,0.0,0.0,44,0.00,,---,0.00,VWS V13.01,2013-09-16 00:38:00,
2013-09-15 20:43:00,67.8,45.1,29.96,NW,320,0.0,0.0,44,0.00,,---,0.00,VWS V13.01,2013-09-16 00:43:00,
2013-09-15 20:48:00,67.6,45.6,29.96,NW,320,0.0,0.0,45,0.00,,---,0.00,VWS V13.01,2013-09-16 00:48:00,
2013-09-15 20:53:00,67.6,45.6,29.96,NW,320,0.0,0.0,45,0.00,,---,0.00,VWS V13.01,2013-09-16 00:53:00,
2013-09-15 20:58:00,67.5,45.4,29.96,NW,320,0.0,0.0,45,0.00,,---,0.00,VWS V13.01,2013-09-16 00:58:00,
2013-09-15 21:03:00,67.3,45.8,29.96,NW,320,0.0,0.0,46,0.00,,---,0.00,VWS V13.01,2013-09-16 01:03:00,
2013-09-15 21:08:00,67.3,46.4,29.96,NW,320,0.0,0.0,47,0.00,,---,0.00,VWS V13.01,2013-09-16 01:08:00,
2013-09-15 21:13:00,67.1,46.2,29.96,NW,320,0.0,0.0,47,0.00,,---,0.00,VWS V13.01,2013-09-16 01:13:00,
2013-09-15 21:18:00,67.1,46.2,29.96,NW,320,0.0,0.0,47,0.00,,---,0.00,VWS V13.01,2013-09-16 01:18:00,
2013-09-15 21:23:00,66.9,46.6,29.96,NW,320,0.0,0.0,48,0.00,,---,0.00,VWS V13.01,2013-09-16 01:23:00,
2013-09-15 21:29:00,66.7,46.5,29.96,NW,320,0.0,0.0,48,0.00,,---,0.00,VWS V13.01,2013-09-16 01:29:00,
2013-09-15 21:34:00,66.7,46.5,29.96,NW,320,0.0,0.0,48,0.00,,---,0.00,VWS V13.01,2013-09-16 01:34:00,
2013-09-15 21:39:00,66.7,46.5,29.96,NW,320,0.0,0.0,48,0.00,,---,0.00,VWS V13.01,2013-09-16 01:39:00,
2013-09-15 21:44:00,66.6,46.8,29.96,NW,320,0.0,0.0,49,0.00,,---,0.00,VWS V13.01,2013-09-16 01:44:00,
2013-09-15 21:49:00,66.6,46.8,29.96,NW,320,0.0,0.0,49,0.00,,---,0.00,VWS V13.01,2013-09-16 01:49:00,
2013-09-15 21:54:00,66.6,46.8,29.96,NW,320,0.0,0.0,49,0.00,,---,0.00,VWS V13.01,2013-09-16 01:54:00,
2013-09-15 21:59:00,66.4,47.2,29.96,NW,320,0.0,0.0,50,0.00,,---,0.00,VWS V13.01,2013-09-16 01:59:00,
2013-09-15 22:04:00,66.2,47.0,29.96,NW,320,0.0,0.0,50,0.00,,---,0.00,VWS V13.01,2013-09-16 02:04:00,
2013-09-15 22:09:00,66.2,47.6,29.96,NW,320,0.0,0.0,51,0.00,,---,0.00,VWS V13.01,2013-09-16 02:09:00,
2013-09-15 22:14:00,66.0,48.4,29.96,NW,320,0.0,0.0,53,0.00,,---,0.00,VWS V13.01,2013-09-16 02:14:00,
2013-09-15 22:19:00,65.8,48.2,29.96,NW,320,0.0,0.0,53,0.00,,---,0.00,VWS V13.01,2013-09-16 02:19:00,
2013-09-15 22:24:00,65.7,48.1,29.96,NW,320,0.0,0.0,53,0.00,,---,0.00,VWS V13.01,2013-09-16 02:24:00,
2013-09-15 22:29:00,65.7,48.1,29.96,NW,320,0.0,0.0,53,0.00,,---,0.00,VWS V13.01,2013-09-16 02:29:00,
2013-09-15 22:34:00,65.5,47.9,29.96,NW,320,0.0,0.0,53,0.00,,---,0.00,VWS V13.01,2013-09-16 02:34:00,
2013-09-15 22:39:00,65.5,47.9,29.96,NW,320,0.0,0.0,53,0.00,,---,0.00,VWS V13.01,2013-09-16 02:39:00,
2013-09-15 22:44:00,65.5,47.9,29.96,NW,320,0.0,0.0,53,0.00,,---,0.00,VWS V13.01,2013-09-16 02:44:00,
2013-09-15 22:49:00,65.3,47.8,29.96,NW,320,0.0,0.0,53,0.00,,---,0.00,VWS V13.01,2013-09-16 02:49:00,
2013-09-15 22:54:00,65.1,47.6,29.96,NW,320,0.0,0.0,53,0.00,,---,0.00,VWS V13.01,2013-09-16 02:54:00,
2013-09-15 22:59:00,65.1,47.6,29.96,NW,320,0.0,0.0,53,0.00,,---,0.00,VWS V13.01,2013-09-16 02:59:00,
2013-09-15 23:04:00,65.1,48.1,29.96,NW,320,0.0,0.0,54,0.00,,---,0.00,VWS V13.01,2013-09-16 03:04:00,
2013-09-15 23:09:00,64.9,47.9,29.96,NW,320,0.0,0.0,54,0.00,,---,0.00,VWS V13.01,2013-09-16 03:09:00,
2013-09-15 23:14:00,64.8,47.8,29.96,NW,320,0.0,0.0,54,0.00,,---,0.00,VWS V13.01,2013-09-16 03:14:00,
2013-09-15 23:19:00,64.8,47.8,29.96,NW,320,0.0,0.0,54,0.00,,---,0.00,VWS V13.01,2013-09-16 03:19:00,
2013-09-15 23:24:00,64.8,47.8,29.96,NW,320,0.0,0.0,54,0.00,,---,0.00,VWS V13.01,2013-09-16 03:24:00,
2013-09-15 23:29:00,64.9,47.9,29.96,NW,320,0.0,0.0,54,0.00,,---,0.00,VWS V13.01,2013-09-16 03:29:00,
2013-09-15 23:34:00,65.1,48.6,29.96,NW,320,0.0,0.0,55,0.00,,---,0.00,VWS V13.01,2013-09-16 03:34:00,
2013-09-15 23:39:00,65.1,48.6,29.96,NW,320,0.0,0.0,55,0.00,,---,0.00,VWS V13.01,2013-09-16 03:39:00,
2013-09-15 23:44:00,64.9,48.4,29.96,NW,320,0.0,0.0,55,0.00,,---,0.00,VWS V13.01,2013-09-16 03:44:00,
2013-09-15 23:49:00,64.6,48.1,29.96,NW,320,0.0,0.0,55,0.00,,---,0.00,VWS V13.01,2013-09-16 03:49:00,
2013-09-15 23:54:00,64.4,47.9,29.96,NW,320,0.0,0.0,55,0.00,,---,0.00,VWS V13.01,2013-09-16 03:54:00,
2013-09-15 23:59:00,64.4,47.9,29.96,NW,320,0.0,0.0,55,0.00,,---,0.00,VWS V13.01,2013-09-16 03:59:00,